TIBA-1

Last updated on Wed Sep 09 2026 00:03:02 GMT+0000 (Coordinated Universal Time)

1 44800U 19080A 26251.23822919 .00000135 00000+0 00000+0 0 9993 2 44800 0.0585 355.5196 0002051 181.5054 291.5105 1.00270246 24889
UTC large
Height (km)
Speed (km/s)
/
Latitude / Longitude
Inclination (degrees)
Orbital Period (minutes)
Azimuth
Elevation
Range (km)
Doppler Factor

Next 0 passes for location: London (51.5072 / 0.1276)

No passes found over London.
TIBA-1